Location: Moscow
(55.7500°N, 37.5830°E)
Time: 13:34:06
(UTC+03:00)

Vanguard 1 - Pass Details

Date: 30 November 2021
Orbit: 652 x 3830 km, 34.2° (Epoch: 25 January)

Event Time Altitude Azimuth Distance (km) Brightness Sun altitude
Exits shadow 00:32:37 15° 111° (ESE) 5,879 13.8 -55.8°
Drops below altitude 10° 00:35:23 10° 103° (ESE) 6,099 14.0 -55.7°
Sets 00:40:46 0° 91° (E) 6,689 14.4 -55.6°
